Time,TemperatureF,DewpointF,PressureIn,WindDirection,WindDirectionDegrees,WindSpeedMPH,WindSpeedGustMPH,Humidity,HourlyPrecipIn,Conditions,Clouds,dailyrainin,SoftwareType,DateUTC
2013-06-18 00:10:00,60.4,59.8,29.85,NE,45,0.0,-999.0,98,-99.99,,,0.00,Acu-Link.com,2013-06-18 04:10:00,
2013-06-18 00:25:00,59.9,59.3,29.86,NE,45,0.0,-999.0,98,-99.99,,,0.00,Acu-Link.com,2013-06-18 04:25:00,
2013-06-18 00:40:00,59.4,58.8,29.86,NNE,22,0.0,-999.0,98,-99.99,,,0.00,Acu-Link.com,2013-06-18 04:40:00,
2013-06-18 00:55:00,59.4,58.8,29.85,NW,315,0.0,-999.0,98,-99.99,,,0.00,Acu-Link.com,2013-06-18 04:55:00,
2013-06-18 01:10:00,59.0,58.4,29.85,NNE,22,0.0,-999.0,98,-99.99,,,0.00,Acu-Link.com,2013-06-18 05:10:00,
2013-06-18 01:25:00,58.5,57.9,29.85,NNW,337,0.0,-999.0,98,-99.99,,,0.00,Acu-Link.com,2013-06-18 05:25:00,
2013-06-18 01:40:00,58.3,57.7,29.85,NNW,337,0.0,-999.0,98,-99.99,,,0.00,Acu-Link.com,2013-06-18 05:40:00,
2013-06-18 01:55:00,58.3,57.7,29.85,NNW,337,0.0,-999.0,98,-99.99,,,0.00,Acu-Link.com,2013-06-18 05:55:00,
2013-06-18 02:11:00,58.1,57.5,29.84,ENE,67,0.0,-999.0,98,-99.99,,,0.00,Acu-Link.com,2013-06-18 06:11:00,
2013-06-18 02:26:00,57.9,57.3,29.85,ENE,67,0.0,-999.0,98,-99.99,,,0.00,Acu-Link.com,2013-06-18 06:26:00,
2013-06-18 02:41:00,58.3,57.7,29.87,NE,45,0.0,-999.0,98,-99.99,,,0.00,Acu-Link.com,2013-06-18 06:41:00,
2013-06-18 02:56:00,58.5,57.9,29.85,SSE,157,0.0,-999.0,98,-99.99,,,0.00,Acu-Link.com,2013-06-18 06:56:00,
2013-06-18 03:11:00,58.5,57.9,29.85,ENE,67,0.0,-999.0,98,-99.99,,,0.00,Acu-Link.com,2013-06-18 07:11:00,
2013-06-18 03:26:00,58.8,58.2,29.84,SSW,202,1.7,-999.0,98,-99.99,,,0.00,Acu-Link.com,2013-06-18 07:26:00,
2013-06-18 03:41:00,59.0,58.4,29.83,SW,225,0.0,-999.0,98,-99.99,,,0.00,Acu-Link.com,2013-06-18 07:41:00,
2013-06-18 03:56:00,58.8,58.2,29.83,NW,315,0.0,-999.0,98,-99.99,,,0.00,Acu-Link.com,2013-06-18 07:56:00,
2013-06-18 04:12:00,58.8,58.2,29.83,South,180,0.0,-999.0,98,-99.99,,,0.00,Acu-Link.com,2013-06-18 08:12:00,
2013-06-18 04:27:00,58.8,58.2,29.83,NW,315,0.0,-999.0,98,-99.99,,,0.00,Acu-Link.com,2013-06-18 08:27:00,
2013-06-18 04:42:00,58.6,58.0,29.84,NNE,22,0.0,-999.0,98,-99.99,,,0.00,Acu-Link.com,2013-06-18 08:42:00,
2013-06-18 04:57:00,58.3,57.7,29.84,NE,45,0.0,-999.0,98,-99.99,,,0.00,Acu-Link.com,2013-06-18 08:57:00,
2013-06-18 05:13:00,57.9,57.3,29.83,SSW,202,0.0,-999.0,98,-99.99,,,0.00,Acu-Link.com,2013-06-18 09:13:00,
2013-06-18 05:28:00,57.6,57.0,29.83,NE,45,0.0,-999.0,98,-99.99,,,0.00,Acu-Link.com,2013-06-18 09:28:00,
2013-06-18 05:43:00,57.6,57.0,29.85,North,0,0.0,-999.0,98,-99.99,,,0.00,Acu-Link.com,2013-06-18 09:43:00,
2013-06-18 05:58:00,57.9,57.3,29.85,NE,45,0.0,-999.0,98,-99.99,,,0.00,Acu-Link.com,2013-06-18 09:58:00,
2013-06-18 06:13:00,58.1,57.5,29.85,ENE,67,0.0,-999.0,98,-99.99,,,0.00,Acu-Link.com,2013-06-18 10:13:00,
2013-06-18 06:28:00,58.8,58.2,29.85,South,180,0.0,-999.0,98,-99.99,,,0.00,Acu-Link.com,2013-06-18 10:28:00,
2013-06-18 06:43:00,59.2,58.6,29.86,NE,45,0.0,-999.0,98,-99.99,,,0.00,Acu-Link.com,2013-06-18 10:43:00,
2013-06-18 06:58:00,59.5,58.9,29.86,NE,45,0.0,-999.0,98,-99.99,,,0.00,Acu-Link.com,2013-06-18 10:58:00,
2013-06-18 07:13:00,60.4,59.8,29.86,NE,45,0.0,-999.0,98,-99.99,,,0.00,Acu-Link.com,2013-06-18 11:13:00,
2013-06-18 07:28:00,61.3,60.7,29.87,SSW,202,0.0,-999.0,98,-99.99,,,0.00,Acu-Link.com,2013-06-18 11:28:00,
2013-06-18 07:44:00,62.4,61.8,29.87,NE,45,1.1,-999.0,98,-99.99,,,0.00,Acu-Link.com,2013-06-18 11:44:00,
2013-06-18 07:59:00,64.0,63.4,29.87,SSE,157,0.0,-999.0,98,-99.99,,,0.00,Acu-Link.com,2013-06-18 11:59:00,
2013-06-18 08:14:00,64.9,64.3,29.87,NE,45,1.1,-999.0,98,-99.99,,,0.00,Acu-Link.com,2013-06-18 12:14:00,
2013-06-18 08:29:00,66.2,65.6,29.87,SW,225,0.0,-999.0,98,-99.99,,,0.00,Acu-Link.com,2013-06-18 12:29:00,
2013-06-18 08:44:00,67.8,67.2,29.87,ESE,112,0.0,-999.0,98,-99.99,,,0.00,Acu-Link.com,2013-06-18 12:44:00,
2013-06-18 08:59:00,69.6,68.1,29.87,NE,45,0.0,-999.0,95,-99.99,,,0.00,Acu-Link.com,2013-06-18 12:59:00,
2013-06-18 09:14:00,68.9,67.4,29.86,ESE,112,0.0,-999.0,95,-99.99,,,0.00,Acu-Link.com,2013-06-18 13:14:00,
2013-06-18 09:29:00,71.6,70.1,29.86,ESE,112,2.7,-999.0,95,-99.99,,,0.00,Acu-Link.com,2013-06-18 13:29:00,
2013-06-18 09:44:00,72.3,69.5,29.86,ESE,112,2.2,-999.0,91,-99.99,,,0.00,Acu-Link.com,2013-06-18 13:44:00,
2013-06-18 10:00:00,75.0,69.5,29.86,NNW,337,1.7,-999.0,83,-99.99,,,0.00,Acu-Link.com,2013-06-18 14:00:00,
2013-06-18 10:15:00,74.3,69.8,29.86,ENE,67,0.0,-999.0,86,-99.99,,,0.00,Acu-Link.com,2013-06-18 14:15:00,
2013-06-18 10:30:00,75.2,69.0,29.85,NE,45,0.0,-999.0,81,-99.99,,,0.00,Acu-Link.com,2013-06-18 14:30:00,
2013-06-18 10:45:00,75.7,68.0,29.85,NE,45,2.7,-999.0,77,-99.99,,,0.00,Acu-Link.com,2013-06-18 14:45:00,
2013-06-18 11:00:00,76.3,68.2,29.84,WSW,247,1.1,-999.0,76,-99.99,,,0.00,Acu-Link.com,2013-06-18 15:00:00,
2013-06-18 11:15:00,77.7,69.1,29.84,South,180,2.7,-999.0,75,-99.99,,,0.00,Acu-Link.com,2013-06-18 15:15:00,
2013-06-18 11:30:00,78.1,67.9,29.84,SW,225,1.7,-999.0,71,-99.99,,,0.00,Acu-Link.com,2013-06-18 15:30:00,
2013-06-18 11:45:00,78.8,70.6,29.84,ENE,67,1.1,-999.0,76,-99.99,,,0.00,Acu-Link.com,2013-06-18 15:45:00,
2013-06-18 12:01:00,78.3,69.3,29.83,NE,45,2.7,-999.0,74,-99.99,,,0.00,Acu-Link.com,2013-06-18 16:01:00,
2013-06-18 12:16:00,79.3,69.1,29.83,NNW,337,0.0,-999.0,71,-99.99,,,0.00,Acu-Link.com,2013-06-18 16:16:00,
2013-06-18 12:31:00,78.8,69.0,29.82,SSE,157,1.7,-999.0,72,-99.99,,,0.00,Acu-Link.com,2013-06-18 16:31:00,
2013-06-18 12:46:00,79.2,68.1,29.81,ESE,112,1.1,-999.0,69,-99.99,,,0.00,Acu-Link.com,2013-06-18 16:46:00,
2013-06-18 13:02:00,79.0,67.5,29.81,ESE,112,5.3,-999.0,68,-99.99,,,0.00,Acu-Link.com,2013-06-18 17:02:00,
2013-06-18 13:17:00,79.2,69.0,29.80,South,180,2.2,-999.0,71,-99.99,,,0.00,Acu-Link.com,2013-06-18 17:17:00,
2013-06-18 13:32:00,78.8,69.8,29.80,SSW,202,1.1,-999.0,74,-99.99,,,0.00,Acu-Link.com,2013-06-18 17:32:00,
2013-06-18 13:47:00,78.6,69.2,29.79,SSW,202,1.1,-999.0,73,-99.99,,,0.00,Acu-Link.com,2013-06-18 17:47:00,
2013-06-18 14:02:00,79.5,69.3,29.79,SSE,157,3.7,-999.0,71,-99.99,,,0.00,Acu-Link.com,2013-06-18 18:02:00,
2013-06-18 14:17:00,78.8,69.4,29.77,NNW,337,2.7,-999.0,73,-99.99,,,0.00,Acu-Link.com,2013-06-18 18:17:00,
2013-06-18 14:32:00,78.3,70.5,29.76,SSW,202,0.0,-999.0,77,-99.99,,,0.00,Acu-Link.com,2013-06-18 18:32:00,
2013-06-18 14:47:00,79.0,69.6,29.77,NE,45,5.3,-999.0,73,-99.99,,,0.00,Acu-Link.com,2013-06-18 18:47:00,
2013-06-18 15:02:00,67.8,63.8,29.80,NE,45,8.3,-999.0,87,-99.99,,,0.00,Acu-Link.com,2013-06-18 19:02:00,
2013-06-18 15:18:00,66.2,65.0,29.83,North,0,3.7,-999.0,96,-99.99,,,0.00,Acu-Link.com,2013-06-18 19:18:00,
2013-06-18 15:33:00,64.2,63.6,29.83,North,0,9.9,-999.0,98,-99.99,,,0.00,Acu-Link.com,2013-06-18 19:33:00,
2013-06-18 15:48:00,63.5,62.9,29.83,NNE,22,5.3,-999.0,98,-99.99,,,0.00,Acu-Link.com,2013-06-18 19:48:00,
2013-06-18 16:03:00,63.1,62.5,29.84,NE,45,4.7,-999.0,98,-99.99,,,0.00,Acu-Link.com,2013-06-18 20:03:00,
2013-06-18 16:18:00,62.8,62.2,29.84,ENE,67,4.2,-999.0,98,-99.99,,,0.00,Acu-Link.com,2013-06-18 20:18:00,
2013-06-18 16:33:00,62.4,61.8,29.85,North,0,2.2,-999.0,98,-99.99,,,0.00,Acu-Link.com,2013-06-18 20:33:00,
2013-06-18 16:48:00,62.4,61.8,29.86,ENE,67,2.2,-999.0,98,-99.99,,,0.00,Acu-Link.com,2013-06-18 20:48:00,
2013-06-18 17:03:00,62.4,61.8,29.85,North,0,2.2,-999.0,98,-99.99,,,0.00,Acu-Link.com,2013-06-18 21:03:00,
2013-06-18 17:18:00,62.4,61.8,29.84,NNE,22,4.7,-999.0,98,-99.99,,,0.00,Acu-Link.com,2013-06-18 21:18:00,
2013-06-18 17:34:00,62.2,61.6,29.84,East,90,0.0,-999.0,98,-99.99,,,0.00,Acu-Link.com,2013-06-18 21:34:00,
2013-06-18 17:49:00,62.6,62.0,29.85,ENE,67,1.7,-999.0,98,-99.99,,,0.00,Acu-Link.com,2013-06-18 21:49:00,
2013-06-18 18:04:00,62.2,61.6,29.84,NNE,22,3.7,-999.0,98,-99.99,,,0.00,Acu-Link.com,2013-06-18 22:04:00,
2013-06-18 18:19:00,62.1,61.5,29.84,NE,45,3.2,-999.0,98,-99.99,,,0.00,Acu-Link.com,2013-06-18 22:19:00,
2013-06-18 18:34:00,61.7,61.1,29.84,NNE,22,2.7,-999.0,98,-99.99,,,0.00,Acu-Link.com,2013-06-18 22:34:00,
2013-06-18 18:49:00,61.5,60.9,29.83,NNW,337,4.2,-999.0,98,-99.99,,,0.00,Acu-Link.com,2013-06-18 22:49:00,
2013-06-18 19:04:00,61.3,60.7,29.83,SSW,202,0.0,-999.0,98,-99.99,,,0.00,Acu-Link.com,2013-06-18 23:04:00,
2013-06-18 19:19:00,61.2,60.6,29.83,ENE,67,0.0,-999.0,98,-99.99,,,0.00,Acu-Link.com,2013-06-18 23:19:00,
2013-06-18 19:34:00,60.8,60.2,29.84,NNE,22,3.2,-999.0,98,-99.99,,,0.00,Acu-Link.com,2013-06-18 23:34:00,
2013-06-18 19:49:00,60.8,60.2,29.84,SSW,202,0.0,-999.0,98,-99.99,,,0.00,Acu-Link.com,2013-06-18 23:49:00,
2013-06-18 20:05:00,60.8,60.2,29.84,NNE,22,5.8,-999.0,98,-99.99,,,0.00,Acu-Link.com,2013-06-19 00:05:00,
2013-06-18 20:20:00,60.4,59.8,29.83,NE,45,4.2,-999.0,98,-99.99,,,0.00,Acu-Link.com,2013-06-19 00:20:00,
2013-06-18 20:35:00,60.4,59.8,29.84,NE,45,7.3,-999.0,98,-99.99,,,0.00,Acu-Link.com,2013-06-19 00:35:00,
2013-06-18 20:50:00,60.4,59.8,29.84,NNE,22,0.0,-999.0,98,-99.99,,,0.00,Acu-Link.com,2013-06-19 00:50:00,
2013-06-18 21:05:00,60.4,59.8,29.85,SSE,157,0.0,-999.0,98,-99.99,,,0.00,Acu-Link.com,2013-06-19 01:05:00,
2013-06-18 21:20:00,60.4,59.8,29.86,SSW,202,0.0,-999.0,98,-99.99,,,0.00,Acu-Link.com,2013-06-19 01:20:00,
2013-06-18 21:35:00,60.4,59.8,29.86,NE,45,0.0,-999.0,98,-99.99,,,0.00,Acu-Link.com,2013-06-19 01:35:00,
2013-06-18 21:50:00,60.4,59.8,29.86,NE,45,0.0,-999.0,98,-99.99,,,0.00,Acu-Link.com,2013-06-19 01:50:00,
2013-06-18 22:05:00,60.3,59.7,29.86,SSW,202,0.0,-999.0,98,-99.99,,,0.00,Acu-Link.com,2013-06-19 02:05:00,
2013-06-18 22:21:00,60.1,59.5,29.86,NE,45,0.0,-999.0,98,-99.99,,,0.00,Acu-Link.com,2013-06-19 02:21:00,
2013-06-18 22:36:00,60.1,59.5,29.85,SSW,202,0.0,-999.0,98,-99.99,,,0.00,Acu-Link.com,2013-06-19 02:36:00,
2013-06-18 22:51:00,59.9,59.3,29.85,NE,45,0.0,-999.0,98,-99.99,,,0.00,Acu-Link.com,2013-06-19 02:51:00,
2013-06-18 23:06:00,59.7,59.1,29.85,NE,45,0.0,-999.0,98,-99.99,,,0.00,Acu-Link.com,2013-06-19 03:06:00,
2013-06-18 23:21:00,59.7,59.1,29.86,NNE,22,1.7,-999.0,98,-99.99,,,0.00,Acu-Link.com,2013-06-19 03:21:00,
2013-06-18 23:36:00,58.8,58.2,29.86,East,90,2.7,-999.0,98,-99.99,,,0.00,Acu-Link.com,2013-06-19 03:36:00,
2013-06-18 23:51:00,58.8,58.2,29.86,NNW,337,1.1,-999.0,98,-99.99,,,0.00,Acu-Link.com,2013-06-19 03:51:00,